| time (UTC) | temp C | wind direction | speed KPH | gust KPH | rain 1hr cm | rain 24hr cm | rain mn cm | humidity % | barometer mb |
| 20260510164759 | 22 | 79 | 4.8 | 12.9 | 0.00 | 0.28 | 0.03 | 59 | 1013.0 |
| 20260510164230 | 22 | 57 | 4.8 | 12.9 | 0.00 | 0.28 | 0.03 | 64 | 1013.1 |
| 20260510163732 | 22 | 90 | 6.4 | 16.1 | 0.00 | 0.28 | 0.03 | 62 | 1013.0 |
| 20260510163202 | 22 | 94 | 4.8 | 16.1 | 0.00 | 0.28 | 0.03 | 68 | 1013.0 |
| 20260510162710 | 21 | 140 | 1.6 | 9.7 | 0.00 | 0.28 | 0.03 | 71 | 1013.1 |
| 20260510162705 | 22 | 87 | 1.6 | 9.7 | 0.00 | 0.28 | 0.03 | 68 | 1013.0 |
| 20260510161703 | 21 | 82 | 1.6 | 6.4 | 0.00 | 0.28 | 0.03 | 69 | 1013.2 |
| 20260510161400 | 21 | 84 | 3.2 | 8.0 | 0.00 | 0.28 | 0.03 | 72 | 1013.2 |
| 20260510160610 | 21 | 108 | 1.6 | 8.0 | 0.00 | 0.28 | 0.03 | 73 | 1013.3 |
| 20260510160046 | 20 | 48 | 3.2 | 8.0 | 0.00 | 0.28 | 0.03 | 75 | 1013.2 |
| 20260510155545 | 20 | 88 | 4.8 | 12.9 | 0.00 | 0.28 | 0.03 | 75 | 1013.2 |
| 20260510155021 | 20 | 92 | 3.2 | 12.9 | 0.00 | 0.28 | 0.03 | 75 | 1013.3 |
| 20260510154522 | 20 | 81 | 3.2 | 6.4 | 0.00 | 0.28 | 0.03 | 78 | 1013.5 |
| 20260510154011 | 19 | 68 | 3.2 | 6.4 | 0.00 | 0.28 | 0.03 | 79 | 1013.6 |
| 20260510153514 | 18 | 82 | 3.2 | 9.7 | 0.00 | 0.28 | 0.03 | 79 | 1013.7 |
| 20260510153216 | 18 | 74 | 3.2 | 9.7 | 0.00 | 0.28 | 0.03 | 80 | 1013.7 |
| 20260510152442 | 18 | 50 | 4.8 | 9.7 | 0.00 | 0.28 | 0.03 | 82 | 1013.7 |
| 20260510151941 | 18 | 68 | 3.2 | 9.7 | 0.00 | 0.28 | 0.03 | 83 | 1013.6 |
| 20260510151426 | 17 | 65 | 3.2 | 9.7 | 0.00 | 0.28 | 0.03 | 84 | 1013.6 |
| 20260510150922 | 17 | 57 | 3.2 | 9.7 | 0.00 | 0.28 | 0.03 | 83 | 1013.7 |
| 20260510150422 | 17 | 101 | 3.2 | 8.0 | 0.00 | 0.28 | 0.03 | 86 | 1013.8 |
| 20260510145901 | 17 | 106 | 3.2 | 8.0 | 0.00 | 0.28 | 0.03 | 85 | 1013.7 |
| 20260510145403 | 16 | 82 | 3.2 | 8.0 | 0.00 | 0.28 | 0.03 | 85 | 1013.6 |
| 20260510144859 | 16 | 94 | 3.2 | 6.4 | 0.00 | 0.28 | 0.03 | 87 | 1013.6 |
| 20260510144356 | 16 | 74 | 3.2 | 6.4 | 0.00 | 0.28 | 0.03 | 86 | 1013.6 |
| 20260510143902 | 15 | 93 | 3.2 | 6.4 | 0.00 | 0.28 | 0.03 | 88 | 1013.6 |
| 20260510143854 | 16 | 79 | 3.2 | 6.4 | 0.00 | 0.28 | 0.03 | 87 | 1013.6 |
| 20260510142827 | 15 | 105 | 3.2 | 6.4 | 0.00 | 0.28 | 0.03 | 89 | 1013.6 |
| 20260510142306 | 15 | 49 | 3.2 | 8.0 | 0.00 | 0.28 | 0.03 | 89 | 1013.6 |
| 20260510141747 | 14 | 65 | 3.2 | 8.0 | 0.00 | 0.28 | 0.03 | 89 | 1013.5 |
| 20260510141241 | 15 | 84 | 1.6 | 6.4 | 0.00 | 0.28 | 0.03 | 91 | 1013.6 |
| 20260510140714 | 14 | 79 | 1.6 | 6.4 | 0.00 | 0.28 | 0.03 | 91 | 1013.4 |
| 20260510140430 | 14 | 94 | 1.6 | 6.4 | 0.00 | 0.28 | 0.03 | 91 | 1013.5 |
| 20260510135928 | 14 | 85 | 1.6 | 6.4 | 0.00 | 0.28 | 0.03 | 92 | 1013.4 |
| 20260510135138 | 13 | 88 | 1.6 | 4.8 | 0.00 | 0.28 | 0.03 | 92 | 1013.4 |
| 20260510134847 | 13 | 80 | 1.6 | 4.8 | 0.00 | 0.28 | 0.03 | 93 | 1013.4 |
| 20260510134117 | 13 | 92 | 1.6 | 4.8 | 0.00 | 0.28 | 0.03 | 92 | 1013.4 |
| 20260510133549 | 13 | 110 | 0.0 | 3.2 | 0.00 | 0.28 | 0.03 | 93 | 1013.3 |
| 20260510133031 | 13 | 73 | 0.0 | 3.2 | 0.00 | 0.28 | 0.03 | 93 | 1013.3 |
| 20260510132518 | 12 | 134 | 0.0 | 1.6 | 0.00 | 0.28 | 0.03 | 93 | 1013.4 |
| 20260510132018 | 12 | 136 | 0.0 | 0.0 | 0.00 | 0.28 | 0.03 | 93 | 1013.5 |
| 20260510131517 | 12 | 136 | 0.0 | 3.2 | 0.00 | 0.28 | 0.03 | 93 | 1013.6 |
| 20260510131004 | 12 | 91 | 0.0 | 3.2 | 0.00 | 0.28 | 0.03 | 93 | 1013.6 |
| 20260510130712 | 12 | 91 | 0.0 | 6.4 | 0.00 | 0.28 | 0.03 | 93 | 1013.8 |
| 20260510125925 | 12 | 84 | 1.6 | 6.4 | 0.00 | 0.28 | 0.03 | 93 | 1013.7 |
| 20260510125424 | 12 | 86 | 1.6 | 4.8 | 0.00 | 0.28 | 0.03 | 93 | 1013.6 |
| 20260510124915 | 12 | 96 | 1.6 | 3.2 | 0.00 | 0.28 | 0.03 | 93 | 1013.7 |
| 20260510124413 | 12 | 96 | 1.6 | 4.8 | 0.00 | 0.28 | 0.03 | 93 | 1013.5 |
| 20260510124355 | 11 | 96 | 1.6 | 4.8 | 0.00 | 0.28 | 0.03 | 93 | 1013.3 |
| 20260510123347 | 11 | 124 | 0.0 | 1.6 | 0.00 | 0.28 | 0.03 | 93 | 1013.2 |
| 20260510122844 | 11 | 124 | 0.0 | 3.2 | 0.00 | 0.28 | 0.03 | 93 | 1013.2 |
| 20260510122344 | 11 | 141 | 0.0 | 3.2 | 0.00 | 0.28 | 0.03 | 93 | 1013.1 |
| 20260510121837 | 11 | 163 | 0.0 | 0.0 | 0.00 | 0.28 | 0.03 | 94 | 1012.9 |
| 20260510121340 | 11 | 163 | 0.0 | 0.0 | 0.00 | 0.28 | 0.03 | 93 | 1012.9 |
| 20260510120821 | 11 | 163 | 0.0 | 0.0 | 0.00 | 0.28 | 0.03 | 94 | 1012.8 |
| 20260510120320 | 11 | 163 | 0.0 | 0.0 | 0.00 | 0.28 | 0.03 | 94 | 1012.8 |
| 20260510115816 | 11 | 163 | 0.0 | 0.0 | 0.00 | 0.28 | 0.03 | 94 | 1012.7 |
| 20260510115317 | 11 | 163 | 0.0 | 0.0 | 0.00 | 0.28 | 0.03 | 94 | 1012.8 |
| 20260510114816 | 11 | 163 | 0.0 | 0.0 | 0.00 | 0.28 | 0.03 | 94 | 1012.6 |
| 20260510114302 | 11 | 163 | 0.0 | 0.0 | 0.00 | 0.28 | 0.03 | 94 | 1012.6 |
| 20260510113806 | 11 | 163 | 0.0 | 0.0 | 0.00 | 0.28 | 0.03 | 94 | 1012.7 |
| 20260510113237 | 11 | 163 | 0.0 | 0.0 | 0.00 | 0.28 | 0.03 | 94 | 1012.7 |
| 20260510112719 | 11 | 163 | 0.0 | 0.0 | 0.00 | 0.28 | 0.03 | 94 | 1012.7 |
| 20260510112217 | 11 | 162 | 0.0 | 0.0 | 0.00 | 0.28 | 0.03 | 94 | 1012.7 |
| 20260510111720 | 11 | 174 | 0.0 | 0.0 | 0.00 | 0.28 | 0.03 | 94 | 1012.7 |
| 20260510111152 | 10 | 174 | 0.0 | 0.0 | 0.00 | 0.28 | 0.03 | 94 | 1012.7 |
| 20260510110648 | 10 | 174 | 0.0 | 0.0 | 0.00 | 0.28 | 0.03 | 94 | 1012.7 |
| 20260510110151 | 10 | 174 | 0.0 | 0.0 | 0.00 | 0.28 | 0.03 | 94 | 1012.6 |
| 20260510110131 | 10 | 174 | 0.0 | 1.6 | 0.00 | 0.28 | 0.03 | 94 | 1012.5 |
| 20260510105128 | 10 | 174 | 0.0 | 1.6 | 0.00 | 0.28 | 0.03 | 94 | 1012.4 |
| 20260510104618 | 10 | 174 | 0.0 | 0.0 | 0.00 | 0.28 | 0.03 | 94 | 1012.2 |
| 20260510104118 | 10 | 174 | 0.0 | 0.0 | 0.00 | 0.28 | 0.03 | 94 | 1012.0 |
| 20260510103618 | 10 | 174 | 0.0 | 0.0 | 0.00 | 0.28 | 0.03 | 94 | 1012.0 |
| 20260510103114 | 10 | 174 | 0.0 | 0.0 | 0.00 | 0.28 | 0.03 | 94 | 1012.0 |
| 20260510102614 | 10 | 174 | 0.0 | 0.0 | 0.00 | 0.28 | 0.03 | 94 | 1011.9 |
| 20260510102114 | 10 | 174 | 0.0 | 0.0 | 0.00 | 0.28 | 0.03 | 94 | 1012.0 |
| 20260510101613 | 10 | 174 | 0.0 | 0.0 | 0.00 | 0.28 | 0.03 | 94 | 1011.9 |
| 20260510101112 | 10 | 174 | 0.0 | 0.0 | 0.00 | 0.28 | 0.03 | 94 | 1012.0 |
| 20260510100613 | 10 | 174 | 0.0 | 0.0 | 0.00 | 0.28 | 0.03 | 94 | 1012.0 |
| 20260510100049 | 10 | 174 | 0.0 | 0.0 | 0.00 | 0.28 | 0.03 | 94 | 1011.9 |
| 20260510095524 | 10 | 174 | 0.0 | 0.0 | 0.00 | 0.28 | 0.03 | 94 | 1011.9 |
| 20260510095023 | 10 | 174 | 0.0 | 0.0 | 0.00 | 0.28 | 0.03 | 94 | 1011.9 |
| 20260510094509 | 10 | 174 | 0.0 | 0.0 | 0.00 | 0.28 | 0.03 | 94 | 1011.9 |
| 20260510094010 | 10 | 174 | 0.0 | 0.0 | 0.00 | 0.28 | 0.03 | 94 | 1011.8 |
| 20260510093500 | 10 | 174 | 0.0 | 0.0 | 0.00 | 0.28 | 0.03 | 94 | 1011.8 |
| 20260510093000 | 10 | 174 | 0.0 | 0.0 | 0.00 | 0.28 | 0.03 | 94 | 1011.7 |
| 20260510092450 | 10 | 174 | 0.0 | 0.0 | 0.00 | 0.28 | 0.03 | 94 | 1011.9 |
| 20260510091952 | 10 | 174 | 0.0 | 0.0 | 0.00 | 0.28 | 0.03 | 94 | 1012.2 |
| 20260510091453 | 10 | 174 | 0.0 | 0.0 | 0.00 | 0.28 | 0.03 | 94 | 1012.2 |
| 20260510090941 | 10 | 174 | 0.0 | 1.6 | 0.00 | 0.28 | 0.03 | 94 | 1012.0 |
| 20260510090446 | 10 | 174 | 0.0 | 1.6 | 0.00 | 0.28 | 0.03 | 93 | 1012.0 |
| 20260510085937 | 10 | 174 | 0.0 | 3.2 | 0.00 | 0.28 | 0.03 | 93 | 1012.0 |
| 20260510085435 | 10 | 174 | 0.0 | 3.2 | 0.00 | 0.28 | 0.03 | 93 | 1012.2 |
| 20260510085430 | 10 | 170 | 0.0 | 3.2 | 0.00 | 0.28 | 0.03 | 93 | 1012.0 |
| 20260510084406 | 10 | 170 | 0.0 | 3.2 | 0.00 | 0.28 | 0.03 | 93 | 1012.2 |
| 20260510083909 | 10 | 166 | 0.0 | 1.6 | 0.00 | 0.28 | 0.03 | 93 | 1012.3 |
| 20260510083349 | 10 | 174 | 0.0 | 1.6 | 0.00 | 0.28 | 0.03 | 93 | 1012.0 |
| 20260510082852 | 10 | 155 | 0.0 | 3.2 | 0.00 | 0.28 | 0.03 | 93 | 1012.2 |
| 20260510082619 | 10 | 217 | 0.0 | 3.2 | 0.00 | 0.28 | 0.03 | 94 | 1012.0 |
| 20260510081850 | 10 | 165 | 0.0 | 3.2 | 0.00 | 0.28 | 0.03 | 93 | 1011.9 |
| 20260510081324 | 10 | 155 | 0.0 | 1.6 | 0.00 | 0.28 | 0.03 | 93 | 1012.0 |
| 20260510080823 | 10 | 169 | 0.0 | 0.0 | 0.00 | 0.28 | 0.03 | 93 | 1011.4 |
| 20260510080258 | 10 | 169 | 0.0 | 0.0 | 0.00 | 0.28 | 0.03 | 93 | 1011.3 |
| 20260510075758 | 10 | 169 | 0.0 | 0.0 | 0.00 | 0.28 | 0.03 | 93 | 1011.4 |
| 20260510075257 | 10 | 169 | 0.0 | 0.0 | 0.00 | 0.28 | 0.03 | 93 | 1011.3 |
| 20260510075030 | 10 | 169 | 0.0 | 0.0 | 0.00 | 0.28 | 0.03 | 93 | 1011.3 |
| 20260510074522 | 10 | 169 | 0.0 | 0.0 | 0.00 | 0.28 | 0.03 | 93 | 1011.3 |
| 20260510073723 | 10 | 169 | 0.0 | 0.0 | 0.00 | 0.28 | 0.03 | 93 | 1011.3 |
| 20260510073425 | 10 | 169 | 0.0 | 0.0 | 0.00 | 0.28 | 0.03 | 93 | 1011.3 |
| 20260510072651 | 10 | 169 | 0.0 | 0.0 | 0.00 | 0.28 | 0.03 | 93 | 1011.3 |
| 20260510072400 | 10 | 169 | 0.0 | 0.0 | 0.00 | 0.28 | 0.03 | 93 | 1011.3 |
| 20260510071632 | 10 | 169 | 0.0 | 0.0 | 0.00 | 0.28 | 0.03 | 93 | 1011.2 |
| 20260510071116 | 9 | 169 | 0.0 | 0.0 | 0.00 | 0.28 | 0.03 | 93 | 1011.2 |
| 20260510070607 | 9 | 169 | 0.0 | 1.6 | 0.00 | 0.28 | 0.03 | 93 | 1011.2 |
| 20260510070104 | 9 | 169 | 0.0 | 1.6 | 0.00 | 0.28 | 0.03 | 93 | 1011.3 |
| 20260510065537 | 9 | 169 | 0.0 | 1.6 | 0.00 | 0.28 | 0.03 | 93 | 1011.2 |
| 20260510065027 | 9 | 169 | 0.0 | 1.6 | 0.00 | 0.28 | 0.03 | 93 | 1011.2 |
| 20260510064759 | 9 | 169 | 0.0 | 0.0 | 0.00 | 0.28 | 0.03 | 93 | 1011.3 |
| 20260510064030 | 9 | 169 | 0.0 | 1.6 | 0.00 | 0.28 | 0.03 | 93 | 1011.2 |
| 20260510063524 | 9 | 185 | 0.0 | 1.6 | 0.03 | 0.28 | 0.03 | 93 | 1011.2 |
| 20260510063240 | 9 | 185 | 0.0 | 0.0 | 0.03 | 0.28 | 0.03 | 93 | 1011.2 |
| 20260510062508 | 9 | 185 | 0.0 | 0.0 | 0.03 | 0.28 | 0.03 | 93 | 1011.1 |
| 20260510062237 | 9 | 185 | 0.0 | 0.0 | 0.03 | 0.28 | 0.03 | 93 | 1011.1 |
| 20260510061437 | 9 | 185 | 0.0 | 0.0 | 0.03 | 0.28 | 0.03 | 93 | 1011.1 |
| 20260510060912 | 9 | 185 | 0.0 | 0.0 | 0.03 | 0.28 | 0.03 | 93 | 1011.1 |
| 20260510060358 | 9 | 185 | 0.0 | 0.0 | 0.03 | 0.28 | 0.03 | 93 | 1011.1 |
| 20260510055857 | 9 | 185 | 0.0 | 0.0 | 0.03 | 0.28 | 0.03 | 93 | 1011.1 |
| 20260510055359 | 9 | 185 | 0.0 | 0.0 | 0.03 | 0.28 | 0.03 | 93 | 1011.1 |
| 20260510055355 | 9 | 185 | 0.0 | 0.0 | 0.03 | 0.28 | 0.03 | 93 | 1011.1 |
| 20260510054339 | 9 | 185 | 0.0 | 0.0 | 0.03 | 0.28 | 0.03 | 93 | 1011.2 |
| 20260510053811 | 9 | 186 | 0.0 | 0.0 | 0.00 | 0.25 | 0.00 | 93 | 1011.2 |
| 20260510053313 | 9 | 185 | 0.0 | 0.0 | 0.00 | 0.25 | 0.00 | 93 | 1011.2 |
| 20260510053046 | 9 | 185 | 0.0 | 0.0 | 0.00 | 0.25 | 0.00 | 93 | 1011.3 |
| 20260510052251 | 9 | 185 | 0.0 | 0.0 | 0.00 | 0.25 | 0.00 | 93 | 1011.1 |
| 20260510051749 | 9 | 185 | 0.0 | 0.0 | 0.00 | 0.25 | 0.00 | 93 | 1011.3 |
| 20260510051249 | 9 | 185 | 0.0 | 0.0 | 0.00 | 0.25 | 0.00 | 93 | 1011.4 |
| 20260510050745 | 9 | 186 | 0.0 | 0.0 | 0.00 | 0.25 | 0.00 | 93 | 1011.3 |
| 20260510050215 | 9 | 186 | 0.0 | 0.0 | 0.00 | 0.25 | 0.00 | 93 | 1011.4 |
| 20260510045717 | 9 | 185 | 0.0 | 0.0 | 0.00 | 0.25 | 0.00 | 93 | 1011.3 |
| 20260510045205 | 9 | 186 | 0.0 | 0.0 | 0.00 | 0.25 | 0.00 | 93 | 1011.4 |
| 20260510044932 | 8 | 186 | 0.0 | 0.0 | 0.00 | 0.25 | 0.00 | 93 | 1011.4 |
| 20260510044418 | 8 | 185 | 0.0 | 0.0 | 0.00 | 0.25 | 0.00 | 93 | 1011.4 |
| 20260510043643 | 8 | 186 | 0.0 | 0.0 | 0.00 | 0.25 | 0.00 | 93 | 1011.5 |
| 20260510043131 | 8 | 185 | 0.0 | 0.0 | 0.00 | 0.25 | 0.00 | 93 | 1011.6 |
| 20260510042629 | 8 | 185 | 0.0 | 0.0 | 0.00 | 0.25 | 0.00 | 93 | 1011.5 |
| 20260510042337 | 8 | 186 | 0.0 | 0.0 | 0.00 | 0.25 | 0.00 | 93 | 1011.5 |
| 20260510041604 | 8 | 186 | 0.0 | 0.0 | 0.00 | 0.25 | 0.00 | 93 | 1011.6 |
| 20260510041045 | 8 | 186 | 0.0 | 0.0 | 0.00 | 0.25 | 0.00 | 93 | 1011.5 |
| 20260510040543 | 8 | 185 | 0.0 | 0.0 | 0.00 | 0.25 | 0.00 | 93 | 1011.5 |
| 20260510040021 | 8 | 185 | 0.0 | 0.0 | 0.00 | 0.25 | 0.00 | 93 | 1011.5 |
| 20260510035751 | 8 | 185 | 0.0 | 0.0 | 0.00 | 0.25 | 0.25 | 93 | 1011.4 |
| 20260510035015 | 8 | 185 | 0.0 | 0.0 | 0.00 | 0.25 | 0.25 | 93 | 1011.5 |
| 20260510034500 | 8 | 185 | 0.0 | 0.0 | 0.00 | 0.25 | 0.25 | 93 | 1011.3 |
| 20260510033939 | 8 | 185 | 0.0 | 0.0 | 0.00 | 0.25 | 0.25 | 92 | 1011.2 |
| 20260510033436 | 8 | 185 | 0.0 | 0.0 | 0.00 | 0.25 | 0.25 | 92 | 1011.1 |
| 20260510032910 | 8 | 186 | 0.0 | 0.0 | 0.00 | 0.25 | 0.25 | 92 | 1011.1 |
| 20260510032408 | 8 | 185 | 0.0 | 0.0 | 0.00 | 0.25 | 0.25 | 92 | 1011.1 |
| 20260510031852 | 8 | 186 | 0.0 | 0.0 | 0.00 | 0.25 | 0.25 | 92 | 1011.1 |
| 20260510031327 | 8 | 185 | 0.0 | 0.0 | 0.00 | 0.25 | 0.25 | 92 | 1011.1 |
| 20260510030822 | 8 | 186 | 0.0 | 0.0 | 0.00 | 0.25 | 0.25 | 92 | 1011.1 |
| 20260510030323 | 8 | 185 | 0.0 | 0.0 | 0.00 | 0.25 | 0.25 | 92 | 1011.2 |
| 20260510025759 | 8 | 185 | 0.0 | 0.0 | 0.00 | 0.25 | 0.25 | 92 | 1011.1 |
| 20260510025306 | 9 | 185 | 0.0 | 0.0 | 0.00 | 0.25 | 0.25 | 92 | 1011.0 |
| 20260510024801 | 9 | 186 | 0.0 | 0.0 | 0.00 | 0.25 | 0.25 | 92 | 1010.9 |
| 20260510024301 | 9 | 186 | 0.0 | 0.0 | 0.00 | 0.25 | 0.25 | 92 | 1010.9 |
| 20260510023739 | 9 | 185 | 0.0 | 0.0 | 0.00 | 0.25 | 0.25 | 92 | 1010.9 |
| 20260510023509 | 9 | 186 | 0.0 | 0.0 | 0.00 | 0.25 | 0.25 | 92 | 1011.0 |
| 20260510022730 | 9 | 186 | 0.0 | 0.0 | 0.00 | 0.25 | 0.25 | 92 | 1010.9 |
| 20260510022229 | 10 | 186 | 0.0 | 0.0 | 0.00 | 0.25 | 0.25 | 92 | 1011.0 |
| 20260510021730 | 10 | 185 | 0.0 | 0.0 | 0.00 | 0.25 | 0.25 | 92 | 1010.9 |
| 20260510021227 | 10 | 185 | 0.0 | 0.0 | 0.00 | 0.25 | 0.25 | 92 | 1010.9 |
| 20260510020725 | 10 | 186 | 0.0 | 0.0 | 0.00 | 0.25 | 0.25 | 91 | 1011.0 |
| 20260510020219 | 10 | 186 | 0.0 | 0.0 | 0.00 | 0.25 | 0.25 | 91 | 1011.0 |
| 20260510015955 | 10 | 185 | 0.0 | 0.0 | 0.00 | 0.25 | 0.25 | 91 | 1011.0 |
| 20260510015216 | 10 | 186 | 0.0 | 0.0 | 0.00 | 0.25 | 0.25 | 91 | 1011.0 |
| 20260510014715 | 10 | 186 | 0.0 | 0.0 | 0.00 | 0.25 | 0.25 | 89 | 1010.9 |
| 20260510014154 | 10 | 185 | 0.0 | 0.0 | 0.00 | 0.25 | 0.25 | 89 | 1011.0 |
| 20260510013652 | 10 | 185 | 0.0 | 0.0 | 0.00 | 0.25 | 0.25 | 89 | 1010.9 |
| 20260510013421 | 10 | 186 | 0.0 | 0.0 | 0.00 | 0.25 | 0.25 | 89 | 1010.9 |
| 20260510012652 | 10 | 185 | 0.0 | 0.0 | 0.00 | 0.25 | 0.25 | 88 | 1010.9 |
| 20260510012126 | 10 | 185 | 0.0 | 0.0 | 0.00 | 0.25 | 0.25 | 87 | 1011.0 |
| 20260510011613 | 10 | 186 | 0.0 | 0.0 | 0.00 | 0.25 | 0.25 | 87 | 1010.8 |
| 20260510011047 | 10 | 185 | 0.0 | 0.0 | 0.00 | 0.25 | 0.25 | 87 | 1010.8 |
| 20260510010523 | 10 | 185 | 0.0 | 0.0 | 0.00 | 0.25 | 0.25 | 87 | 1010.9 |
| 20260510010019 | 10 | 185 | 0.0 | 0.0 | 0.00 | 0.25 | 0.25 | 86 | 1010.8 |
| 20260510005451 | 11 | 186 | 0.0 | 0.0 | 0.00 | 0.25 | 0.25 | 85 | 1010.7 |
| 20260510004928 | 11 | 186 | 0.0 | 0.0 | 0.00 | 0.25 | 0.25 | 85 | 1010.7 |
| 20260510004636 | 11 | 185 | 0.0 | 0.0 | 0.00 | 0.25 | 0.25 | 85 | 1010.6 |
| 20260510003859 | 11 | 186 | 0.0 | 0.0 | 0.00 | 0.25 | 0.25 | 85 | 1010.5 |
| 20260510003331 | 11 | 186 | 0.0 | 0.0 | 0.00 | 0.25 | 0.25 | 85 | 1010.5 |
| 20260510003102 | 11 | 185 | 0.0 | 0.0 | 0.00 | 0.25 | 0.25 | 82 | 1010.4 |
| 20260510002321 | 11 | 185 | 0.0 | 0.0 | 0.00 | 0.25 | 0.25 | 82 | 1010.4 |
| 20260510001824 | 11 | 185 | 0.0 | 0.0 | 0.00 | 0.25 | 0.25 | 82 | 1010.4 |
| 20260510001254 | 11 | 186 | 0.0 | 0.0 | 0.00 | 0.25 | 0.25 | 82 | 1010.4 |
| 20260510000742 | 11 | 185 | 0.0 | 0.0 | 0.00 | 0.25 | 0.25 | 81 | 1010.5 |
| 20260510000241 | 12 | 185 | 0.0 | 0.0 | 0.00 | 0.25 | 0.25 | 81 | 1010.4 |
| 20260509235723 | 12 | 185 | 0.0 | 0.0 | 0.00 | 0.25 | 0.25 | 80 | 1010.5 |
| 20260509235453 | 12 | 186 | 0.0 | 0.0 | 0.00 | 0.25 | 0.25 | 80 | 1010.3 |
| 20260509234719 | 12 | 186 | 0.0 | 0.0 | 0.00 | 0.25 | 0.25 | 80 | 1010.4 |
| 20260509234220 | 12 | 186 | 0.0 | 0.0 | 0.00 | 0.25 | 0.25 | 80 | 1010.3 |
| 20260509233724 | 12 | 185 | 0.0 | 0.0 | 0.00 | 0.25 | 0.25 | 80 | 1010.3 |
| 20260509233216 | 12 | 186 | 0.0 | 0.0 | 0.00 | 0.25 | 0.25 | 79 | 1010.3 |
| 20260509232720 | 12 | 186 | 0.0 | 0.0 | 0.00 | 0.25 | 0.25 | 79 | 1010.3 |
| 20260509232432 | 13 | 186 | 0.0 | 0.0 | 0.00 | 0.25 | 0.25 | 79 | 1010.5 |
| 20260509231635 | 13 | 186 | 0.0 | 0.0 | 0.00 | 0.25 | 0.25 | 79 | 1010.4 |
| 20260509231126 | 13 | 186 | 0.0 | 0.0 | 0.00 | 0.25 | 0.25 | 79 | 1010.3 |
| 20260509230625 | 13 | 186 | 0.0 | 0.0 | 0.00 | 0.25 | 0.25 | 78 | 1010.4 |
| 20260509230121 | 13 | 185 | 0.0 | 0.0 | 0.00 | 0.25 | 0.25 | 78 | 1010.3 |
| 20260509225619 | 13 | 186 | 0.0 | 0.0 | 0.00 | 0.25 | 0.25 | 78 | 1010.2 |
| 20260509225102 | 13 | 186 | 0.0 | 0.0 | 0.00 | 0.25 | 0.25 | 79 | 1010.2 |
| 20260509224837 | 13 | 186 | 0.0 | 0.0 | 0.00 | 0.25 | 0.25 | 80 | 1010.3 |
| 20260509224037 | 13 | 186 | 0.0 | 0.0 | 0.00 | 0.25 | 0.25 | 80 | 1010.4 |
| 20260509223806 | 13 | 185 | 0.0 | 0.0 | 0.00 | 0.25 | 0.25 | 81 | 1010.5 |
| 20260509223305 | 13 | 186 | 0.0 | 0.0 | 0.00 | 0.25 | 0.25 | 81 | 1010.4 |
| 20260509222536 | 13 | 185 | 0.0 | 0.0 | 0.00 | 0.25 | 0.25 | 81 | 1010.4 |
| 20260509222008 | 13 | 186 | 0.0 | 1.6 | 0.00 | 0.25 | 0.25 | 81 | 1010.3 |
| 20260509221736 | 13 | 186 | 0.0 | 1.6 | 0.00 | 0.25 | 0.25 | 82 | 1010.3 |
| 20260509221000 | 13 | 186 | 0.0 | 1.6 | 0.00 | 0.25 | 0.25 | 81 | 1010.3 |
| 20260509220458 | 13 | 186 | 0.0 | 3.2 | 0.00 | 0.25 | 0.25 | 82 | 1010.4 |
| 20260509215931 | 13 | 186 | 0.0 | 1.6 | 0.00 | 0.25 | 0.25 | 81 | 1010.4 |
| 20260509215658 | 13 | 185 | 1.6 | 6.4 | 0.00 | 0.25 | 0.25 | 81 | 1010.7 |
| 20260509215134 | 13 | 188 | 0.0 | 6.4 | 0.08 | 0.25 | 0.25 | 81 | 1010.6 |
| 20260509214606 | 13 | 174 | 0.0 | 3.2 | 0.15 | 0.25 | 0.25 | 81 | 1010.6 |
| 20260509214101 | 13 | 184 | 0.0 | 3.2 | 0.18 | 0.25 | 0.25 | 81 | 1010.7 |
| 20260509213315 | 12 | 160 | 0.0 | 0.0 | 0.18 | 0.25 | 0.25 | 81 | 1010.8 |
| 20260509212814 | 12 | 160 | 0.0 | 0.0 | 0.18 | 0.25 | 0.25 | 81 | 1010.8 |
| 20260509212317 | 12 | 160 | 0.0 | 0.0 | 0.18 | 0.25 | 0.25 | 81 | 1010.7 |
| 20260509211748 | 12 | 160 | 0.0 | 0.0 | 0.18 | 0.25 | 0.25 | 80 | 1010.6 |
| 20260509211220 | 12 | 160 | 0.0 | 0.0 | 0.20 | 0.25 | 0.25 | 80 | 1010.6 |
| 20260509210719 | 12 | 160 | 0.0 | 0.0 | 0.20 | 0.25 | 0.25 | 80 | 1010.7 |
| 20260509210159 | 12 | 160 | 0.0 | 0.0 | 0.20 | 0.25 | 0.25 | 79 | 1010.4 |
| 20260509205655 | 12 | 160 | 0.0 | 0.0 | 0.20 | 0.25 | 0.25 | 79 | 1010.5 |
| 20260509205154 | 12 | 160 | 0.0 | 0.0 | 0.18 | 0.23 | 0.23 | 78 | 1010.5 |
| 20260509204925 | 13 | 160 | 0.0 | 1.6 | 0.08 | 0.13 | 0.13 | 78 | 1010.4 |
| 20260509204157 | 13 | 160 | 0.0 | 1.6 | 0.03 | 0.08 | 0.08 | 78 | 1010.3 |
| 20260509203921 | 13 | 160 | 0.0 | 3.2 | 0.03 | 0.08 | 0.08 | 78 | 1010.3 |
| 20260509203414 | 13 | 160 | 0.0 | 3.2 | 0.03 | 0.08 | 0.08 | 78 | 1010.1 |
| 20260509202912 | 13 | 145 | 0.0 | 1.6 | 0.03 | 0.08 | 0.08 | 78 | 1010.4 |
| 20260509202112 | 13 | 144 | 0.0 | 3.2 | 0.03 | 0.08 | 0.08 | 77 | 1010.4 |
| 20260509201842 | 13 | 247 | 0.0 | 3.2 | 0.00 | 0.05 | 0.05 | 76 | 1010.6 |
| 20260509201311 | 13 | 155 | 0.0 | 3.2 | 0.00 | 0.05 | 0.05 | 76 | 1010.6 |
| 20260509200538 | 14 | 130 | 1.6 | 3.2 | 0.03 | 0.05 | 0.05 | 76 | 1010.6 |
| 20260509200036 | 14 | 130 | 0.0 | 3.2 | 0.03 | 0.05 | 0.05 | 77 | 1010.6 |
| 20260509195506 | 14 | 138 | 0.0 | 3.2 | 0.03 | 0.05 | 0.05 | 77 | 1010.5 |
| 20260509195005 | 14 | 138 | 0.0 | 3.2 | 0.03 | 0.05 | 0.05 | 76 | 1010.9 |
| 20260509194440 | 14 | 128 | 0.0 | 3.2 | 0.03 | 0.05 | 0.05 | 77 | 1010.8 |
| 20260509193911 | 13 | 128 | 0.0 | 3.2 | 0.03 | 0.05 | 0.05 | 77 | 1011.0 |
| 20260509193342 | 13 | 128 | 0.0 | 4.8 | 0.03 | 0.05 | 0.05 | 77 | 1011.1 |
| 20260509192841 | 13 | 124 | 0.0 | 4.8 | 0.03 | 0.05 | 0.05 | 77 | 1011.3 |
| 20260509192312 | 13 | 122 | 0.0 | 1.6 | 0.03 | 0.05 | 0.05 | 78 | 1011.3 |
| 20260509191744 | 13 | 122 | 0.0 | 1.6 | 0.03 | 0.05 | 0.05 | 78 | 1011.2 |
| 20260509191516 | 13 | 122 | 0.0 | 1.6 | 0.03 | 0.05 | 0.05 | 77 | 1011.3 |
| 20260509190718 | 13 | 96 | 0.0 | 1.6 | 0.00 | 0.03 | 0.03 | 77 | 1011.4 |
| 20260509190212 | 14 | 96 | 0.0 | 1.6 | 0.00 | 0.03 | 0.03 | 78 | 1011.4 |
| 20260509185655 | 14 | 114 | 0.0 | 1.6 | 0.00 | 0.03 | 0.03 | 77 | 1011.5 |
| 20260509185420 | 14 | 126 | 0.0 | 3.2 | 0.00 | 0.03 | 0.03 | 77 | 1011.4 |
| 20260509184851 | 15 | 126 | 0.0 | 3.2 | 0.00 | 0.03 | 0.03 | 77 | 1011.5 |
| 20260509184115 | 15 | 126 | 0.0 | 3.2 | 0.00 | 0.03 | 0.03 | 76 | 1011.5 |
| 20260509183611 | 15 | 110 | 0.0 | 3.2 | 0.03 | 0.03 | 0.03 | 76 | 1011.5 |
| 20260509183055 | 15 | 94 | 1.6 | 3.2 | 0.03 | 0.03 | 0.03 | 76 | 1011.5 |
| 20260509182528 | 15 | 90 | 1.6 | 3.2 | 0.03 | 0.03 | 0.03 | 75 | 1011.5 |
| 20260509182027 | 15 | 98 | 0.0 | 3.2 | 0.03 | 0.03 | 0.03 | 74 | 1011.5 |
| 20260509181502 | 15 | 106 | 0.0 | 3.2 | 0.03 | 0.03 | 0.03 | 73 | 1011.4 |
| 20260509181004 | 15 | 106 | 0.0 | 6.4 | 0.03 | 0.03 | 0.03 | 73 | 1011.4 |
| 20260509180502 | 15 | 92 | 1.6 | 6.4 | 0.03 | 0.03 | 0.03 | 74 | 1011.5 |
| 20260509180000 | 15 | 101 | 1.6 | 4.8 | 0.03 | 0.03 | 0.03 | 73 | 1011.3 |
| 20260509175456 | 15 | 98 | 0.0 | 3.2 | 0.03 | 0.03 | 0.03 | 73 | 1011.3 |
| 20260509174957 | 15 | 128 | 0.0 | 3.2 | 0.03 | 0.03 | 0.03 | 73 | 1011.3 |
| 20260509174433 | 15 | 128 | 0.0 | 4.8 | 0.03 | 0.03 | 0.03 | 73 | 1011.3 |
| 20260509173936 | 15 | 90 | 1.6 | 4.8 | 0.00 | 0.00 | 0.00 | 74 | 1011.4 |
| 20260509173641 | 15 | 102 | 1.6 | 6.4 | 0.00 | 0.00 | 0.00 | 74 | 1011.4 |
| 20260509172912 | 15 | 91 | 3.2 | 8.0 | 0.00 | 0.00 | 0.00 | 73 | 1011.4 |
| 20260509172349 | 15 | 79 | 4.8 | 8.0 | 0.00 | 0.00 | 0.00 | 71 | 1011.2 |
| 20260509171844 | 16 | 77 | 4.8 | 8.0 | 0.00 | 0.00 | 0.00 | 69 | 1011.5 |
| 20260509171345 | 16 | 77 | 4.8 | 4.8 | 0.00 | 0.00 | 0.00 | 69 | 1011.5 |
| 20260509170243 | 16 | 89 | 4.8 | 9.7 | 0.00 | 0.00 | 0.00 | 68 | 1011.2 |
| 20260509165724 | 16 | 72 | 4.8 | 9.7 | 0.00 | 0.00 | 0.00 | 65 | 1011.4 |
| 20260509165226 | 17 | 83 | 4.8 | 9.7 | 0.00 | 0.00 | 0.00 | 65 | 1011.4 |